This demonstration page uses our WeatherBlox Daily Observations layout. Learn more.

Left ArrowRight Arrow

Hourly Observations for April 18, 2022

Temp ( °F °C ) Dew Point ( °F °C ) Humidity (%) Winds ( mph kmh ) Pressure ( in mb ) Visibility ( mi km ) Precip ( " mm )
12:53 am 00:53 Mostly Cloudy 38 3.3 29 -1.7 70 70 NNW 6 9 30.30 1026 10 16 0.00 0.00
1:53 am 01:53 Cloudy 42 5.6 27 -2.8 55 55 N 10 17 30.32 1027 10 16 0.00 0.00
2:53 am 02:53 Cloudy 41 5 17 -8.3 38 38 N 13 20 30.34 1027 10 16 0.00 0.00
3:53 am 03:53 Mostly Cloudy 38 3.3 18 -7.8 44 44 N 17 28 30.34 1027 10 16 0.00 0.00
4:53 am 04:53 Cloudy 36 2.2 19 -7.2 50 50 N 13 20 30.35 1028 10 16 0.00 0.00
5:53 am 05:53 Cloudy 35 1.7 19 -7.2 52 52 N 26 43 30.37 1028 10 16 0.00 0.00
6:53 am 06:53 Cloudy 32 0 15 -9.4 50 50 N 20 31 30.40 1029 10 16 0.00 0.00
7:53 am 07:53 Cloudy 33 0.6 15 -9.4 47 47 N 20 31 30.43 1030 10 16 0.00 0.00
8:53 am 08:53 Mostly Cloudy 36 2.2 16 -8.9 44 44 N 21 33 30.45 1031 10 16 0.00 0.00
9:53 am 09:53 Cloudy 40 4.4 15 -9.4 36 36 N 16 26 30.47 1032 10 16 0.00 0.00
10:53 am 10:53 Mostly Cloudy 43 6.1 15 -9.4 32 32 NNE 15 24 30.48 1032 10 16 0.00 0.00
11:53 am 11:53 Sunny 46 7.8 14 -10 27 27 NNW 10 17 30.48 1032 10 16 0.00 0.00
12:53 pm 12:53 Sunny 49 9.4 13 -10.6 23 23 NNW 8 13 30.45 1031 10 16 0.00 0.00
1:53 pm 13:53 Sunny 52 11.1 11 -11.7 19 19 N 16 26 30.42 1030 10 16 0.00 0.00
2:53 pm 14:53 Sunny 53 11.7 11 -11.7 18 18 NNW 10 17 30.39 1029 10 16 0.00 0.00
3:53 pm 15:53 Sunny 55 12.8 11 -11.7 17 17 NW 10 17 30.36 1028 10 16 0.00 0.00
4:31 pm 16:31 Sunny 55 12.8 11 -11.7 17 17 NW 10 17 30.32 1027 10 16 0.00 0.00
4:53 pm 16:53 Sunny 55 12.8 10 -12.2 16 16 VRB 6 9 30.34 1027 10 16 0.00 0.00
5:53 pm 17:53 Sunny 56 13.3 11 -11.7 17 17 N 7 11 30.32 1027 10 16 0.00 0.00
6:53 pm 18:53 Sunny 55 12.8 9 -12.8 16 16 Calm 30.32 1027 10 16 0.00 0.00
7:53 pm 19:53 Sunny 50 10 10 -12.2 20 20 ENE 5 7 30.32 1027 9 14 0.00 0.00
8:53 pm 20:53 Clear 47 8.3 10 -12.2 22 22 E 6 9 30.32 1027 10 16 0.00 0.00
9:53 pm 21:53 Clear 45 7.2 12 -11.1 26 26 E 8 13 30.32 1027 10 16 0.00 0.00
10:53 pm 22:53 Clear 45 7.2 14 -10 29 29 E 10 17 30.32 1027 10 16 0.00 0.00
11:53 pm 23:53 Clear 41 5 12 -11.1 30 30 ESE 12 19 30.31 1027 10 16 0.00 0.00

Powered by AerisWeather